Weather History for CYQQ - January, 2013

Change the Weather History Date:

Friday, January 18, 2013

  Actual Average (CYBL) Record (CYBL)
Temperature  
Mean Temperature 38 °F -  
Max Temperature 40 °F 44 °F - (-1)
Min Temperature 36 °F 33 °F - (-1)
Degree Days  
Heating Degree Days 27    
Moisture  
Dew Point 34 °F    
Average Humidity 86    
Maximum Humidity 93    
Minimum Humidity 77    
Precipitation  
Precipitation 0.00 in 0.19 in - ()
Sea Level Pressure  
Sea Level Pressure 30.33 in    
Wind  
Wind Speed 3 mph ()    
Max Wind Speed 6 mph    
Max Gust Speed -    
Visibility 19.9 miles    
Events      
Averages and records for this station are not official NWS values.
T = Trace of Precipitation, MM = Missing Value Source: Averaged Metar Reports

Daily Weather History Graph

Daily Weather History Graph

Search for Another Location

Airport or City:

Trip Planner

Search our weather history database for the weather conditions in past years. The results will help you decide how hot, cold, wet, or windy it might be!

Date:

Astronomy

Jan. 18, 2013 Rise Set
Actual Time 8:08 AM PST 4:52 PM PST
Civil Twilight 7:31 AM PST 5:28 PM PST
Nautical Twilight 6:52 AM PST 6:08 PM PST
Astronomical Twilight 6:13 AM PST 6:46 PM PST
Moon 11:01 AM PST (1/18) 12:34 AM PST (1/18)
Length of Visible Light 9h 56m
Length of Day
8h 44m
Waxing Crescent, 48% of the Moon is Illuminated
Jan 18
Waxing Crescent
Jan 18
First Quarter
Jan 26
Full
Feb 3
Last Quarter
Feb 9
New

Hourly Weather History & Observations

Time (PST) Temp. Windchill Dew Point Humidity Pressure Visibility Wind Dir Wind Speed Gust Speed Precip Events Conditions
12:00 AM 37.4 °F - 33.8 °F 87% 30.32 in 20.0 mi West 2.3 mph - N/A   Overcast
1:00 AM 37.4 °F 34.9 °F 33.8 °F 87% 30.32 in 20.0 mi WNW 3.5 mph - N/A   Overcast
2:00 AM 37.4 °F 34.9 °F 33.8 °F 87% 30.32 in 20.0 mi WNW 3.5 mph - N/A   Overcast
3:00 AM 37.4 °F - 33.8 °F 87% 30.32 in 20.0 mi West 2.3 mph - N/A   Overcast
4:00 AM 37 °F - 34 °F 84% 30.31 in 19 mi North 2.3 mph - -   Overcast
4:00 AM 37.4 °F - 33.8 °F 87% 30.31 in 20.0 mi North 2.3 mph - N/A   Overcast
4:53 AM - - - N/A% - 20.0 mi NNW 3.5 mph - N/A   Overcast
5:00 AM 37.4 °F 34.9 °F 33.8 °F 87% 30.30 in 20.0 mi NNW 3.5 mph - N/A   Overcast
6:00 AM 37.4 °F - 33.8 °F 87% 30.30 in 20.0 mi West 2.3 mph - N/A   Overcast
7:00 AM 37.4 °F 34.9 °F 33.8 °F 87% 30.30 in 20.0 mi NW 3.5 mph - N/A   Overcast
8:00 AM 37.4 °F - 33.8 °F 87% 30.31 in 20.0 mi WSW 2.3 mph - N/A   Overcast
9:00 AM 37.4 °F 34.9 °F 33.8 °F 87% 30.32 in 20.0 mi WNW 3.5 mph - N/A   Overcast
10:00 AM 38 °F - 33 °F 77% 30.33 in 19 mi WSW 4.6 mph - -   Overcast
10:00 AM 37.4 °F 32.8 °F 33.8 °F 87% 30.33 in 20.0 mi WSW 5.8 mph - N/A   Overcast
11:00 AM 39.2 °F - 33.8 °F 81% 30.34 in 20.0 mi Calm Calm - N/A   Overcast
12:00 PM 39.2 °F - 33.8 °F 81% 30.34 in 20.0 mi NNW 2.3 mph - N/A   Overcast
1:00 PM 39.2 °F - 33.8 °F 81% 30.33 in 20.0 mi WSW 2.3 mph - N/A   Overcast
2:00 PM 39.2 °F 37.0 °F 35.6 °F 87% 30.33 in 20.0 mi NNE 3.5 mph - N/A   Overcast
2:50 PM - - - N/A% - 20.0 mi Calm Calm - N/A   Mostly Cloudy
3:00 PM 39.2 °F - 35.6 °F 87% 30.33 in 20.0 mi NNE 2.3 mph - N/A   Mostly Cloudy
4:00 PM 39 °F - 35 °F 79% 30.34 in 19 mi NNE 2.3 mph - -   Overcast
4:00 PM 39.2 °F 37.0 °F 35.6 °F 87% 30.34 in 20.0 mi NE 3.5 mph - N/A   Overcast
5:00 PM 39.2 °F 37.0 °F 35.6 °F 87% 30.34 in 20.0 mi North 3.5 mph - N/A   Overcast
6:00 PM 39.2 °F - 35.6 °F 87% 30.35 in 20.0 mi West 2.3 mph - N/A   Overcast
7:00 PM 39.2 °F - 35.6 °F 87% 30.35 in 20.0 mi WNW 2.3 mph - N/A   Overcast
8:00 PM 37.4 °F 34.9 °F 35.6 °F 93% 30.35 in 20.0 mi WNW 3.5 mph - N/A   Overcast
9:00 PM 37.4 °F 34.9 °F 35.6 °F 93% 30.35 in 20.0 mi WNW 3.5 mph - N/A   Overcast
10:00 PM 38 °F - 34 °F 81% 30.36 in 19 mi West 3.5 mph - -   Overcast
10:00 PM 37.4 °F 33.8 °F 33.8 °F 87% 30.36 in 20.0 mi West 4.6 mph - N/A   Overcast
11:00 PM 37.4 °F 34.9 °F 33.8 °F 87% 30.36 in 20.0 mi West 3.5 mph - N/A   Overcast